Location: ??????
(41.3794°N, 22.5014°E)
Time: 21:33:17
(UTC+00:00)

SL-16 R/B - Pass Details

Date: 30 November 2020
Orbit: 841 x 849 km, 71.0° (Epoch: 18 January)

Event Time Altitude Azimuth Distance (km) Brightness Sun altitude
Rises 17:06:25 0° 247° (WSW) 3,389 6.7 -22.9°
Reaches altitude 10° 17:09:34 10° 264° (W) 2,457 5.7 -23.5°
Maximum altitude 17:13:33 19° 310° (NW) 1,882 4.4 -24.2°
Drops below altitude 10° 17:17:34 10° 355° (N) 2,466 4.6 -24.9°
Enters shadow 17:19:00 - 5° (N) 2,864 4.8 -25.2°
